ARG1725 SAAV-SABE

Flight info

Callsign ARG1725
Flight time 0h 40m
Altitude 23000
Route ESKAD W6 SNT SNT9R
Aircraft B738/M-SDE2E3FGHIRWXY/LB1

Departure

Time 2026-05-07 15:14
Airport Sauce Viejo Airport (SAAV)

Arrival

Time 2026-05-07 15:54
Airport Aeroparque Jorge Newbery (SABE)
Time Latitude Longitude Altitude Speed Heading
2026-05-07 14:53 -31.70884 -60.80658 64 ft 0 kts 159°
2026-05-07 15:08 -31.70885 -60.80659 64 ft 0 kts 166°
2026-05-07 15:09 -31.70888 -60.80663 64 ft 1 kts 226°
2026-05-07 15:09 -31.70884 -60.80670 64 ft 1 kts 311°
2026-05-07 15:09 -31.70862 -60.80674 56 ft 7 kts 352°
2026-05-07 15:09 -31.70798 -60.80707 59 ft 13 kts 306°
2026-05-07 15:10 -31.70761 -60.80801 61 ft 12 kts 294°
2026-05-07 15:10 -31.70727 -60.80892 63 ft 12 kts 294°
2026-05-07 15:10 -31.70664 -60.80931 66 ft 12 kts 28°
2026-05-07 15:10 -31.70590 -60.80889 59 ft 12 kts 24°
2026-05-07 15:11 -31.70504 -60.80844 65 ft 15 kts 24°
2026-05-07 15:11 -31.70410 -60.80797 64 ft 14 kts 23°
2026-05-07 15:11 -31.70321 -60.80753 65 ft 14 kts 22°
2026-05-07 15:11 -31.70235 -60.80711 63 ft 13 kts 22°
2026-05-07 15:12 -31.70166 -60.80661 67 ft 7 kts 44°
2026-05-07 15:12 -31.70136 -60.80649 65 ft 2 kts 329°
2026-05-07 15:12 -31.70134 -60.80658 61 ft 1 kts 279°
2026-05-07 15:12 -31.70140 -60.80664 62 ft 2 kts 208°
2026-05-07 15:13 -31.70142 -60.80665 61 ft 1 kts 205°
2026-05-07 15:13 -31.70314 -60.80750 65 ft 63 kts 202°
2026-05-07 15:13 -31.70942 -60.81061 63 ft 129 kts 203°
2026-05-07 15:13 -31.71902 -60.81536 389 ft 158 kts 207°
2026-05-07 15:14 -31.72956 -60.81943 1267 ft 160 kts 196°
2026-05-07 15:14 -31.74075 -60.82048 2087 ft 167 kts 182°
2026-05-07 15:14 -31.75239 -60.81700 2796 ft 181 kts 161°
2026-05-07 15:14 -31.76346 -60.80918 3372 ft 194 kts 153°
2026-05-07 15:15 -31.77116 -60.80296 3512 ft 212 kts 151°
2026-05-07 15:15 -31.78380 -60.79250 3810 ft 237 kts 151°
2026-05-07 15:15 -31.79775 -60.78109 4413 ft 249 kts 150°
2026-05-07 15:15 -31.81217 -60.76946 5169 ft 254 kts 151°
2026-05-07 15:16 -31.83178 -60.75394 6231 ft 259 kts 151°
2026-05-07 15:16 -31.84192 -60.74602 6731 ft 262 kts 152°
2026-05-07 15:16 -31.86239 -60.73023 7678 ft 269 kts 152°
2026-05-07 15:16 -31.87304 -60.72208 8171 ft 273 kts 152°
2026-05-07 15:17 -31.88912 -60.70983 8931 ft 278 kts 152°
2026-05-07 15:17 -31.90558 -60.69734 9638 ft 285 kts 152°
2026-05-07 15:17 -31.92251 -60.68455 10166 ft 297 kts 152°
2026-05-07 15:17 -31.94069 -60.67091 10323 ft 322 kts 152°
2026-05-07 15:18 -31.96008 -60.65635 10677 ft 337 kts 152°
2026-05-07 15:18 -31.98008 -60.64130 11249 ft 345 kts 152°
2026-05-07 15:18 -32.00051 -60.62591 11883 ft 351 kts 152°
2026-05-07 15:18 -32.02129 -60.61025 12527 ft 358 kts 152°
2026-05-07 15:19 -32.04248 -60.59428 13175 ft 365 kts 152°
2026-05-07 15:19 -32.06407 -60.57802 13805 ft 372 kts 152°
2026-05-07 15:19 -32.08617 -60.56138 14319 ft 382 kts 151°
2026-05-07 15:19 -32.10887 -60.54426 14794 ft 393 kts 150°
2026-05-07 15:20 -32.13985 -60.52091 15483 ft 405 kts 150°
2026-05-07 15:20 -32.15602 -60.50871 15828 ft 412 kts 149°
2026-05-07 15:20 -32.18041 -60.49026 16333 ft 421 kts 149°
2026-05-07 15:20 -32.20536 -60.47136 16825 ft 431 kts 149°
2026-05-07 15:21 -32.23093 -60.45201 17309 ft 440 kts 148°
2026-05-07 15:21 -32.25697 -60.43233 17804 ft 449 kts 148°
2026-05-07 15:21 -32.28355 -60.41218 18243 ft 459 kts 148°
2026-05-07 15:21 -32.31056 -60.39169 18764 ft 463 kts 148°
2026-05-07 15:22 -32.33776 -60.37110 19426 ft 464 kts 148°
2026-05-07 15:22 -32.36499 -60.35048 20059 ft 466 kts 148°
2026-05-07 15:22 -32.39237 -60.32972 20629 ft 470 kts 148°
2026-05-07 15:22 -32.41997 -60.30876 21176 ft 473 kts 148°
2026-05-07 15:23 -32.44778 -60.28761 21722 ft 477 kts 148°
2026-05-07 15:23 -32.47574 -60.26633 22345 ft 478 kts 148°
2026-05-07 15:23 -32.50370 -60.24502 22804 ft 479 kts 147°
2026-05-07 15:23 -32.53176 -60.22363 22772 ft 477 kts 147°
2026-05-07 15:24 -32.55950 -60.20246 22782 ft 473 kts 147°
2026-05-07 15:24 -32.58710 -60.18139 22785 ft 472 kts 147°
2026-05-07 15:24 -32.61470 -60.16031 22785 ft 473 kts 147°
2026-05-07 15:24 -32.64246 -60.13909 22782 ft 474 kts 147°
2026-05-07 15:25 -32.67062 -60.11871 22778 ft 475 kts 153°
2026-05-07 15:25 -32.70070 -60.10294 22786 ft 472 kts 162°
2026-05-07 15:25 -32.73116 -60.08973 22787 ft 472 kts 163°
2026-05-07 15:25 -32.76258 -60.07664 22782 ft 473 kts 164°
2026-05-07 15:26 -32.79360 -60.06378 22778 ft 473 kts 163°
2026-05-07 15:26 -32.82426 -60.05092 22777 ft 473 kts 163°
2026-05-07 15:26 -32.85563 -60.03759 22777 ft 473 kts 163°
2026-05-07 15:26 -32.88659 -60.02428 22777 ft 473 kts 163°
2026-05-07 15:27 -32.91744 -60.01091 22776 ft 472 kts 163°
2026-05-07 15:27 -32.94794 -59.99764 22777 ft 472 kts 163°
2026-05-07 15:27 -32.97913 -59.98405 22773 ft 472 kts 163°
2026-05-07 15:27 -33.01001 -59.97058 22775 ft 472 kts 163°
2026-05-07 15:28 -33.04082 -59.95714 22772 ft 472 kts 163°
2026-05-07 15:28 -33.07173 -59.94365 22776 ft 472 kts 163°
2026-05-07 15:28 -33.10216 -59.93037 22772 ft 472 kts 163°
2026-05-07 15:28 -33.13299 -59.91691 22771 ft 472 kts 163°
2026-05-07 15:29 -33.16391 -59.90339 22769 ft 472 kts 163°
2026-05-07 15:29 -33.19477 -59.88990 22773 ft 473 kts 163°
2026-05-07 15:29 -33.22562 -59.87639 22770 ft 473 kts 163°
2026-05-07 15:29 -33.25649 -59.86287 22770 ft 473 kts 163°
2026-05-07 15:30 -33.28734 -59.84935 22768 ft 473 kts 163°
2026-05-07 15:30 -33.31827 -59.83578 22764 ft 473 kts 163°
2026-05-07 15:30 -33.34916 -59.82222 22763 ft 473 kts 163°
2026-05-07 15:30 -33.38004 -59.80865 22760 ft 473 kts 163°
2026-05-07 15:31 -33.41095 -59.79506 22764 ft 473 kts 163°
2026-05-07 15:31 -33.44224 -59.78129 22762 ft 473 kts 163°
2026-05-07 15:31 -33.47273 -59.76787 22757 ft 473 kts 163°
2026-05-07 15:31 -33.50367 -59.75423 22753 ft 473 kts 163°
2026-05-07 15:32 -33.53450 -59.74063 22750 ft 473 kts 163°
2026-05-07 15:32 -33.56546 -59.72697 22752 ft 473 kts 163°
2026-05-07 15:32 -33.59632 -59.71333 22751 ft 473 kts 163°
2026-05-07 15:32 -33.62720 -59.69968 22748 ft 473 kts 163°
2026-05-07 15:33 -33.65844 -59.68586 22748 ft 473 kts 163°
2026-05-07 15:33 -33.68891 -59.67237 22748 ft 473 kts 163°
2026-05-07 15:33 -33.71980 -59.65876 22745 ft 473 kts 163°
2026-05-07 15:33 -33.75072 -59.64535 22745 ft 473 kts 163°
2026-05-07 15:34 -33.78173 -59.63202 22738 ft 472 kts 164°
2026-05-07 15:34 -33.81256 -59.61878 22739 ft 472 kts 164°
2026-05-07 15:34 -33.84362 -59.60541 22739 ft 472 kts 164°
2026-05-07 15:34 -33.87493 -59.59190 22741 ft 472 kts 164°
2026-05-07 15:35 -33.90571 -59.57859 22739 ft 472 kts 163°
2026-05-07 15:35 -33.93665 -59.56519 22534 ft 474 kts 164°
2026-05-07 15:35 -33.96775 -59.55170 21976 ft 475 kts 164°
2026-05-07 15:35 -33.99874 -59.53824 21468 ft 472 kts 164°
2026-05-07 15:36 -34.02910 -59.52503 20989 ft 468 kts 164°
2026-05-07 15:36 -34.05966 -59.51174 20511 ft 465 kts 164°
2026-05-07 15:36 -34.08996 -59.49855 20034 ft 462 kts 164°
2026-05-07 15:36 -34.12044 -59.48528 19566 ft 458 kts 165°
2026-05-07 15:37 -34.14992 -59.47244 19088 ft 455 kts 165°
2026-05-07 15:37 -34.17967 -59.45947 18621 ft 452 kts 165°
2026-05-07 15:37 -34.20851 -59.44431 18112 ft 456 kts 151°
2026-05-07 15:37 -34.23328 -59.41971 17595 ft 456 kts 131°
2026-05-07 15:38 -34.25160 -59.38872 17135 ft 450 kts 121°
2026-05-07 15:38 -34.26813 -59.35688 16647 ft 445 kts 121°
2026-05-07 15:38 -34.28402 -59.32565 16177 ft 440 kts 121°
2026-05-07 15:38 -34.29996 -59.29438 15727 ft 434 kts 122°
2026-05-07 15:39 -34.31555 -59.26407 15293 ft 429 kts 122°
2026-05-07 15:39 -34.33129 -59.23376 14850 ft 423 kts 123°
2026-05-07 15:39 -34.34691 -59.20386 14412 ft 418 kts 123°
2026-05-07 15:39 -34.36237 -59.17439 13985 ft 412 kts 124°
2026-05-07 15:40 -34.37767 -59.14525 13555 ft 407 kts 124°
2026-05-07 15:40 -34.39273 -59.11654 13076 ft 402 kts 124°
2026-05-07 15:40 -34.40760 -59.08817 12614 ft 396 kts 124°
2026-05-07 15:40 -34.42224 -59.06022 12180 ft 390 kts 124°
2026-05-07 15:41 -34.43668 -59.03264 11759 ft 385 kts 123°
2026-05-07 15:41 -34.45089 -59.00546 11336 ft 379 kts 123°
2026-05-07 15:41 -34.46490 -58.97864 10915 ft 374 kts 123°
2026-05-07 15:41 -34.47873 -58.95213 10496 ft 370 kts 123°
2026-05-07 15:42 -34.49241 -58.92590 10131 ft 364 kts 122°
2026-05-07 15:42 -34.50567 -58.90043 9981 ft 352 kts 122°
2026-05-07 15:42 -34.51738 -58.87794 9834 ft 342 kts 122°
2026-05-07 15:42 -34.53004 -58.85361 9693 ft 332 kts 122°
2026-05-07 15:43 -34.54195 -58.83070 9648 ft 319 kts 122°
2026-05-07 15:43 -34.55355 -58.80838 9447 ft 310 kts 122°
2026-05-07 15:43 -34.56478 -58.78539 8860 ft 318 kts 115°
2026-05-07 15:43 -34.57280 -58.76014 8494 ft 315 kts 108°
2026-05-07 15:44 -34.57911 -58.73562 8186 ft 313 kts 107°
2026-05-07 15:44 -34.58548 -58.71041 7844 ft 311 kts 108°
2026-05-07 15:44 -34.59210 -58.68518 7503 ft 309 kts 109°
2026-05-07 15:44 -34.59879 -58.66048 7178 ft 307 kts 109°
2026-05-07 15:45 -34.60554 -58.63595 6842 ft 306 kts 110°
2026-05-07 15:45 -34.61227 -58.61152 6516 ft 304 kts 110°
2026-05-07 15:45 -34.61885 -58.58717 6191 ft 303 kts 109°
2026-05-07 15:45 -34.62531 -58.56294 5874 ft 301 kts 110°
2026-05-07 15:46 -34.63806 -58.51488 5191 ft 297 kts 110°
2026-05-07 15:46 -34.64440 -58.49110 4864 ft 295 kts 111°
2026-05-07 15:46 -34.65071 -58.46737 4554 ft 294 kts 111°
2026-05-07 15:47 -34.65691 -58.44405 4228 ft 293 kts 111°
2026-05-07 15:47 -34.66322 -58.42028 3907 ft 292 kts 111°
2026-05-07 15:47 -34.66942 -58.39691 3689 ft 286 kts 111°
2026-05-07 15:47 -34.67536 -58.37445 3639 ft 274 kts 111°
2026-05-07 15:48 -34.68109 -58.35277 3561 ft 265 kts 111°
2026-05-07 15:48 -34.68662 -58.33184 3484 ft 255 kts 111°
2026-05-07 15:48 -34.69191 -58.31183 3433 ft 242 kts 112°
2026-05-07 15:48 -34.69691 -58.29285 3325 ft 229 kts 112°
2026-05-07 15:49 -34.70125 -58.27472 3212 ft 219 kts 101°
2026-05-07 15:49 -34.69888 -58.25686 3039 ft 216 kts 64°
2026-05-07 15:49 -34.68887 -58.24390 2837 ft 210 kts 30°
2026-05-07 15:49 -34.67536 -58.23848 2650 ft 203 kts
2026-05-07 15:50 -34.66176 -58.23995 2491 ft 199 kts 332°
2026-05-07 15:50 -34.65137 -58.25028 2341 ft 188 kts 300°
2026-05-07 15:50 -34.64441 -58.26351 2187 ft 186 kts 299°
2026-05-07 15:50 -34.63721 -58.27630 2028 ft 185 kts 300°
2026-05-07 15:51 -34.62997 -58.28914 1877 ft 184 kts 300°
2026-05-07 15:51 -34.62274 -58.30204 1756 ft 180 kts 298°
2026-05-07 15:51 -34.61602 -58.31400 1686 ft 163 kts 298°
2026-05-07 15:51 -34.60977 -58.32518 1671 ft 156 kts 298°
2026-05-07 15:52 -34.60379 -58.33589 1452 ft 150 kts 298°
2026-05-07 15:52 -34.59793 -58.34642 1247 ft 151 kts 300°
2026-05-07 15:52 -34.59204 -58.35697 1043 ft 151 kts 298°
2026-05-07 15:52 -34.58617 -58.36746 864 ft 148 kts 299°
2026-05-07 15:53 -34.58047 -58.37769 658 ft 149 kts 302°
2026-05-07 15:53 -34.57468 -58.38817 565 ft 150 kts 302°
2026-05-07 15:53 -34.56884 -58.39876 255 ft 147 kts 302°
2026-05-07 15:53 -34.56323 -58.40868 35 ft 141 kts 304°
2026-05-07 15:54 -34.55862 -58.41689 25 ft 87 kts 304°
2026-05-07 15:54 -34.55623 -58.42119 28 ft 44 kts 304°
2026-05-07 15:54 -34.55484 -58.42371 29 ft 26 kts 303°
2026-05-07 15:54 -34.55409 -58.42496 27 ft 13 kts 327°
2026-05-07 15:55 -34.55362 -58.42462 28 ft 8 kts 81°
2026-05-07 15:55 -34.55368 -58.42392 24 ft 8 kts 102°
2026-05-07 15:55 -34.55384 -58.42352 26 ft 8 kts 124°
2026-05-07 15:55 -34.55428 -58.42281 26 ft 8 kts 127°
2026-05-07 15:56 -34.55449 -58.42247 28 ft 7 kts 127°
2026-05-07 15:56 -34.55477 -58.42201 28 ft 8 kts 127°
2026-05-07 15:56 -34.55511 -58.42146 28 ft 8 kts 127°
2026-05-07 15:56 -34.55547 -58.42089 26 ft 9 kts 127°
2026-05-07 15:57 -34.55598 -58.42004 26 ft 15 kts 124°
2026-05-07 15:57 -34.55665 -58.41882 25 ft 19 kts 124°
2026-05-07 15:57 -34.55737 -58.41749 28 ft 19 kts 117°
2026-05-07 15:57 -34.55794 -58.41611 27 ft 18 kts 117°
2026-05-07 15:58 -34.55850 -58.41479 28 ft 17 kts 117°
2026-05-07 15:58 -34.55904 -58.41351 24 ft 17 kts 117°
2026-05-07 15:58 -34.55965 -58.41234 27 ft 16 kts 127°
2026-05-07 15:58 -34.56032 -58.41128 27 ft 15 kts 127°
2026-05-07 15:59 -34.56095 -58.41028 27 ft 12 kts 128°
2026-05-07 15:59 -34.56122 -58.40955 25 ft 10 kts 75°
2026-05-07 15:59 -34.56083 -58.40907 26 ft 6 kts 37°
2026-05-07 15:59 -34.56058 -58.40884 25 ft 3 kts 37°
2026-05-07 16:00 -34.56057 -58.40884 25 ft 0 kts 37°